Location: Chicago
(41.8500°N, 87.6500°W)
Time: 10:42:53
(UTC-05:00)

ISS - Visible Passes

Search period start: 19 April 2015 00:00
Search period end: 29 April 2015 00:00
Orbit: 395 x 403 km, 51.6° (Epoch: 19 April)

Date Brightness Start Highest point End Pass type
(mag) Time Alt. Az. Time Alt. Az. Time Alt. Az.
19 Apr -3.4 21:02:01 10° WNW 21:05:17 76° SW 21:06:13 42° SE visible
20 Apr -3.0 20:08:04 10° NW 20:11:18 56° NNE 20:14:30 10° ESE visible
20 Apr -1.0 21:45:10 10° W 21:47:03 17° SW 21:47:03 17° SW visible
21 Apr -2.0 20:50:32 10° WNW 20:53:31 33° SW 20:55:21 18° SSE visible
23 Apr -0.8 20:39:24 10° W 20:41:25 15° SW 20:43:21 10° S visible
